Flag for Canada Weather past 2 weeks in Vancouver, British Columbia, Canada

Now
57 °F

Cool.


Feels Like: 54 °F
Forecast: 47 / 68 °F
Wind: 13 mph from Northwest

Location: Vancouver International Air-Port

Current Time: Apr 19, 2015 at 6:27:02 PM

Latest Report: Apr 19, 2015 at 6:00 PM


Visibility: 30 mi

Pressure: 30.04 "Hg

Humidity: 72%

Dew point: 48 °F

Location of VancouverLocation

Historic Weather in Vancouver — Graph

°F

Vancouver temperature yesterday

Maximum temperature yesterday: 57 °F (at 3:00 PM)
Minimum temperature yesterday: 43 °F (at 7:00 AM)
Average temperature yesterday: 52 °F

Past Weeks' High & Low Weather Summary

 TemperatureHumidityPressure
High59 °F (Apr 9, 5:00 PM)94% (Apr 17, 6:00 AM)30.54 "Hg (Apr 17, 6:00 AM)
Low34 °F (Apr 5, 7:00 AM)47% (Apr 11, 3:00 PM)29.67 "Hg (Apr 5, 8:00 PM)
Average48 °F75%30.07 "Hg
* Reported Apr 4 5:00 PM — Apr 19 5:00 PM, Vancouver, Weather by CustomWeather, © 2015

Note: Actual official high and low records may vary slightly from our data, if they occured in-between our weather recording intervals... More about our weather records

Advertising

Vancouver weather history for previous 24 hours

 ConditionsComfort  
Time TempWeatherWind HumidityBarometerVisibility
5:00 PM
Sun, Apr 19
57 °FHigh level clouds.16 mph72%30.06 "Hg30 mi
4:00 PM57 °FMore clouds than sun.13 mph72%30.10 "Hg30 mi
3:00 PM59 °FBroken clouds.14 mph68%30.12 "Hg30 mi
2:00 PM57 °FPartly sunny.13 mph77%30.15 "Hg30 mi
1:00 PM57 °FPartly sunny.14 mph72%30.17 "Hg30 mi
12:00 PM55 °FPartly sunny.15 mph77%30.19 "Hg30 mi
11:00 AM55 °FPartly sunny.15 mph72%30.21 "Hg30 mi
10:00 AM55 °FPassing clouds.13 mph77%30.22 "Hg30 mi
9:00 AM52 °FScattered clouds.13 mph88%30.23 "Hg30 mi
8:00 AM52 °FHigh level clouds.12 mph88%30.24 "Hg30 mi
7:00 AM46 °FHigh level clouds.6 mph93%30.24 "Hg30 mi
6:00 AM43 °FPassing clouds.5 mph87%30.23 "Hg30 mi
5:00 AM45 °FPassing clouds.6 mph93%30.24 "Hg15 mi
4:00 AM45 °FPassing clouds.3 mph87%30.24 "Hg15 mi
3:00 AM48 °FPassing clouds.3 mph82%30.24 "Hg15 mi
2:00 AM45 °FPassing clouds.2 mph93%30.24 "Hg15 mi
1:00 AM45 °FPassing clouds.5 mph87%30.24 "Hg15 mi
12:00 AM48 °FPassing clouds.6 mph87%30.24 "Hg15 mi
11:00 PM
Sat, Apr 18
50 °FPassing clouds.10 mph88%30.24 "Hg20 mi
10:00 PM50 °FPassing clouds.10 mph88%30.24 "Hg30 mi
9:00 PM52 °FPartly sunny.12 mph82%30.24 "Hg30 mi
8:00 PM52 °FPartly sunny.14 mph82%30.25 "Hg30 mi
7:00 PM54 °FPartly sunny.14 mph77%30.26 "Hg30 mi
6:00 PM54 °FPartly sunny.13 mph82%30.28 "Hg30 mi
Weather by CustomWeather, © 2015

See weather overviewHow to use our weather pages